This is the latest recevied weather packets stored in our database for station/object KB4MOX. If no packets are shown the sender has not sent any weather packets the latest 1 day(s).
| Time | Temp. | Humidity | Pressure | Rain* | Wind** | Luminosity | Snow |
|---|---|---|---|---|---|---|---|
| 1778028788 | 20.56° C | 62% | 1014.3 hPa | 0 mm | 0 m/s | 0 W/m² | - |
| 1778028484 | 20.56° C | 60% | 1014.5 hPa | 0 mm | 0 m/s | 0 W/m² | - |
| 1778028182 | 21.11° C | 59% | 1014.5 hPa | 0 mm | 0 m/s | 0 W/m² | - |
| 1778027878 | 21.67° C | 58% | 1014.5 hPa | 0 mm | 0 m/s | 0 W/m² | - |
| 1778027574 | 21.67° C | 57% | 1014.4 hPa | 0 mm | 0 m/s | 0 W/m² | - |
| 1778027270 | 22.22° C | 56% | 1014.3 hPa | 0 mm | 0 m/s | 0 W/m² | - |
| 1778026967 | 22.78° C | 53% | 1014.1 hPa | 0 mm | 0 m/s | 1 W/m² | - |
| 1778026663 | 23.33° C | 52% | 1014.2 hPa | 0 mm | 0 m/s | 2 W/m² | - |
| 1778026361 | 23.89° C | 50% | 1014 hPa | 0 mm | 0 m/s | 4 W/m² | - |
| 1778026057 | 23.89° C | 48% | 1014 hPa | 0 mm | 0 m/s | 6 W/m² | - |
| 1778025755 | 24.44° C | 47% | 1014 hPa | 0 mm | 0 m/s | 9 W/m² | - |
| 1778025452 | 25° C | 47% | 1013.8 hPa | 0 mm | 0 m/s | 12 W/m² | - |
| 1778025149 | 25° C | 45% | 1013.7 hPa | 0 mm | 0 m/s | 14 W/m² | - |
| 1778024846 | 25.56° C | 44% | 1013.6 hPa | 0 mm | 0 m/s | 18 W/m² | - |
| 1778024544 | 25.56° C | 43% | 1013.8 hPa | 0 mm | 0.45 m/s, 95° | 22 W/m² | - |
| 1778024240 | 26.11° C | 43% | 1013.8 hPa | 0 mm | 0.45 m/s, 112° | 25 W/m² | - |
| 1778023938 | 26.67° C | 42% | 1013.7 hPa | 0 mm | 0 m/s | 27 W/m² | - |
| 1778023635 | 26.67° C | 40% | 1013.6 hPa | 0 mm | 0 m/s | 29 W/m² | - |
| 1778023332 | 27.22° C | 40% | 1013.7 hPa | 0 mm | 0 m/s | 57 W/m² | - |
| 1778023029 | 27.22° C | 39% | 1013.5 hPa | 0 mm | 0.45 m/s, 83° | 67 W/m² | - |
| 1778022728 | 27.78° C | 38% | 1013.7 hPa | 0 mm | 0.89 m/s, 269° | 78 W/m² | - |
| 1778022426 | 27.78° C | 38% | 1013.5 hPa | 0 mm | 0.45 m/s, 101° | 89 W/m² | - |
| 1778022122 | 28.33° C | 38% | 1013.6 hPa | 0 mm | 0.89 m/s, 151° | 101 W/m² | - |
| 1778021818 | 27.78° C | 37% | 1013.6 hPa | 0 mm | 0.45 m/s, 96° | 112 W/m² | - |
| 1778021515 | 27.78° C | 39% | 1013.7 hPa | 0 mm | 0 m/s | 127 W/m² | - |
* Rain latest hour (hover to see other rain measurements)
** Current wind speed in m/s (hover to see current wind gust speed)